Location: Elk County Courthouse
(37.4695°N, 96.2617°W)
Time: 06:31:10
(UTC+00:00)

Daily predictions for brighter satellites

Satellite Brightness Start Highest point End
(mag) Time Altitude Azimuth Time Altitude Azimuth Time Altitude Azimuth
Abrixas rocket 3.4 12:01:31 10° NW 12:04:03 28° NNE 12:06:35 10° E
Spot 2 4.5 12:00:07 10° NNE 12:04:44 81° ESE 12:09:36 10° S
Aureole 3 3.9 12:00:41 10° NNW 12:05:01 58° W 12:10:32 10° S
Cosmos 1484 Rocket 4.3 12:03:01 10° NNW 12:05:25 16° WNW 12:07:47 10° WSW
BREEZE-M DEB (TANK) 2.7 12:05:26 12° W 12:07:13 23° SW 12:09:04 10° SSE
Cosmos 407 Rocket 3.4 12:03:18 10° SSW 12:08:25 85° WNW 12:13:36 10° NNE
Envisat 3.9 12:04:05 10° NNE 12:09:05 54° E 12:14:01 10° S
H-2A R/B 2.7 12:07:02 10° N 12:10:52 89° WNW 12:14:44 10° SSW
OE (NEXTSAT) 4.3 12:07:28 10° WSW 12:10:56 74° NNW 12:14:25 10° ENE
Cosmos 1626 Rocket 3.6 12:07:47 10° S 12:12:14 85° W 12:16:44 10° N
Cosmos 1140 Rocket 3.6 12:07:59 10° SSW 12:13:06 84° ESE 12:18:15 10° NNE
PSLV R/B 4.2 12:09:08 10° S 12:13:11 49° W 12:17:17 10° NNW
Cosmos 1553 Rocket 4.0 12:07:29 10° N 12:13:38 87° W 12:19:41 10° S
Cosmos 1602 Rocket 3.9 12:10:34 10° S 12:14:57 75° E 12:19:25 10° N
Cosmos 2278 4.0 12:11:37 10° NW 12:17:01 48° WSW 12:22:24 10° S
Okean O Rocket 3.4 12:14:28 10° NNE 12:18:32 38° E 12:22:35 10° SSE
Cosmos 2322 Rocket 3.8 12:14:20 10° N 12:19:34 37° ENE 12:24:45 10° SE
SL-27 R/B 2.8 12:17:01 10° S 12:20:35 73° ESE 12:24:12 10° NNE
USA 281 3.2 23:46:16 10° SSE 23:52:46 70° ENE 23:59:18 10° NNW
Meteor 2-14 Rocket 4.5 23:47:05 10° N 23:53:11 64° E 23:59:12 10° SSE
